Wind_Speed
35 34 33 33 33 32 33 34 34 32 32 31 30 29 30 30 29 28 28 26 24 23 22 22 21 19 18 17 14 16 20 19 17 16 15 14 14 15 13 11 11 11
36 35 34 34 34 32 33 36 36 34 34 32 31 30 30 31 30 29 29 27 25 24 23 24 22 19 20 19 15 17 20 19 17 17 16 15 15 16 15 13 13 13
37 36 35 35 35 34 34 35 35 34 34 33 32 32 31 31 30 30 30 28 27 26 24 25 23 20 22 22 19 19 20 20 19 18 18 18 17 17 16 15 15 14
38 37 37 36 36 37 35 35 35 34 34 33 33 33 32 31 29 30 32 30 28 28 26 25 24 22 23 24 23 22 21 21 21 19 19 20 20 19 18 16 16 16
39 38 38 37 37 37 36 35 36 35 34 34 34 33 33 33 31 31 33 32 31 31 29 27 26 25 25 26 25 24 24 24 23 21 20 21 22 21 20 18 16 15
39 38 38 38 38 38 37 36 37 37 36 35 34 34 34 34 33 33 34 34 33 32 32 29 27 26 27 28 26 25 26 26 26 25 23 23 23 22 22 20 18 16
39 38 38 38 39 38 37 36 36 38 37 36 35 36 35 35 35 35 35 35 35 34 33 31 30 29 29 29 28 27 27 27 27 28 27 25 23 23 23 22 21 19
39 38 38 39 39 38 38 37 37 37 38 37 36 36 36 36 36 36 35 35 36 36 35 34 32 31 30 31 31 29 29 29 28 29 30 28 25 24 24 22 22 21
38 39 39 39 39 38 38 38 38 37 38 38 38 37 37 37 38 38 37 37 37 37 37 35 34 33 32 32 33 32 31 32 31 30 30 30 28 27 26 24 23 22
39 39 39 40 40 38 38 39 39 38 38 38 39 38 38 38 38 38 39 39 39 38 38 37 35 35 34 34 35 35 34 34 33 32 32 32 32 30 29 27 26 24
40 40 40 41 41 39 38 39 39 38 38 39 39 39 39 39 38 39 40 41 41 40 39 38 38 37 36 36 36 36 36 36 35 34 33 33 33 32 31 30 29 27
40 40 42 42 42 40 39 39 39 38 39 39 40 39 39 39 40 40 41 42 42 41 41 40 39 39 39 38 38 37 38 37 36 35 35 34 33 33 32 32 30 29
42 42 43 43 43 42 40 40 39 39 39 40 40 39 38 39 40 41 41 42 42 41 42 41 41 40 40 39 38 38 38 38 37 36 36 35 33 31 30 31 30 28
44 44 44 43 43 42 40 39 40 39 39 40 39 39 38 39 40 41 40 40 41 42 42 41 40 40 40 40 38 38 38 38 37 36 35 34 32 29 28 29 28 28
45 43 42 41 41 41 40 40 40 40 39 39 39 39 39 37 38 39 39 39 40 40 39 39 39 39 40 40 39 38 38 37 37 36 33 31 29 28 28 29 29 28
44 42 40 40 41 41 41 40 40 39 38 38 39 40 39 37 36 37 38 39 38 38 38 38 38 39 39 40 41 40 38 36 34 32 31 30 29 28 28 29 30 29
42 40 39 40 41 41 41 41 40 39 38 37 38 39 39 37 36 36 38 39 38 38 38 38 38 38 39 40 41 40 38 35 33 31 31 32 31 30 29 29 29 29
41 39 39 40 41 40 40 40 39 38 37 36 36 38 39 37 37 37 38 38 38 37 37 37 37 38 38 39 40 41 39 34 32 32 33 32 32 31 30 28 28 28
40 39 39 40 40 40 39 39 38 36 36 36 36 37 38 37 36 37 37 36 36 36 36 37 37 38 38 38 39 41 41 36 33 33 33 32 31 31 29 29 28 28
41 40 40 40 39 39 38 37 37 36 35 34 33 35 36 37 35 34 35 35 35 36 37 38 38 38 38 38 38 40 41 40 35 32 31 30 30 30 29 28 28 29
41 40 39 39 38 38 37 36 36 35 32 31 32 34 36 36 35 33 33 34 35 36 38 38 37 37 37 37 37 39 41 40 35 31 30 29 28 29 28 27 27 28
42 40 38 38 37 37 36 35 34 33 32 31 31 32 33 35 34 33 33 34 35 36 36 34 34 35 35 35 36 37 40 39 35 32 30 28 26 25 26 27 28 28
41 39 38 37 37 36 35 34 34 34 33 32 31 30 30 32 33 32 32 33 34 34 33 31 31 33 34 34 34 35 38 38 36 33 31 28 26 24 22 23 25 26
41 40 38 37 36 36 36 34 34 33 33 33 33 31 29 29 30 30 31 32 33 32 31 30 30 30 30 31 32 33 36 37 36 33 31 29 27 24 22 19 18 19
40 40 39 38 37 36 35 34 33 33 34 34 33 32 29 28 29 29 29 29 29 28 26 26 25 24 24 26 28 29 34 36 34 32 30 28 26 25 25 21 16 14
39 40 40 39 37 36 34 34 33 33 32 31 29 28 28 27 27 26 23 22 21 21 21 21 20 20 20 22 24 27 31 33 33 31 29 27 26 26 25 22 16 12
Wind_Direction
198 197 195 195 196 198 196 193 190 187 186 187 188 189 189 191 192 192 193 194 194 196 199 197 197 199 196 195 202 198 193 194 195 191 190 196 192 185 189 198 201 211
198 197 196 195 197 199 197 193 191 192 192 193 195 194 192 194 193 193 194 194 193 197 199 195 195 198 194 193 195 191 191 193 193 191 193 197 196 191 195 199 200 210
198 197 196 195 196 198 197 194 193 194 196 197 198 195 194 194 193 194 196 193 191 194 195 194 197 200 196 196 196 191 189 191 193 195 197 199 200 198 198 200 204 210
198 197 196 196 197 199 198 195 194 195 196 198 197 195 195 194 193 196 197 193 191 194 197 200 202 203 200 199 202 199 195 193 194 198 203 204 205 204 203 205 209 211
198 197 196 196 197 198 198 197 196 196 196 197 196 196 197 196 196 198 196 194 195 198 200 203 205 205 202 200 204 205 201 199 198 199 203 207 207 207 206 208 213 213
198 197 196 197 198 198 198 198 198 198 197 197 196 197 198 198 198 198 196 196 198 198 200 204 205 205 204 202 204 206 205 205 204 202 205 208 208 209 210 211 215 213
199 198 196 197 199 199 198 198 199 199 198 197 196 197 198 198 198 198 198 199 199 199 200 203 205 205 205 204 205 206 207 208 207 207 209 211 211 213 213 214 217 215
199 198 197 198 200 200 200 200 200 200 199 198 197 197 198 199 199 198 200 200 200 200 201 202 205 206 205 204 205 206 206 207 208 209 211 213 214 214 212 213 218 220
199 198 198 199 200 200 201 202 202 201 200 199 199 199 199 200 201 200 200 200 199 199 200 202 205 206 206 205 205 206 206 206 208 210 212 213 215 215 213 212 217 221
200 199 198 199 201 201 202 203 204 203 202 201 201 201 201 201 202 202 201 200 200 200 201 203 205 206 206 206 206 207 208 207 208 210 212 214 215 217 216 214 216 217
200 199 199 200 201 202 202 203 204 204 204 203 202 202 203 203 203 203 202 202 202 203 204 205 206 206 206 207 208 209 210 210 210 210 213 215 217 218 218 216 216 217
201 200 200 201 202 202 203 203 204 204 205 205 204 203 204 204 203 203 203 204 205 206 207 207 207 207 207 208 209 210 212 213 213 213 214 215 218 220 220 218 217 219
201 201 201 201 202 203 203 204 204 205 206 206 206 204 204 204 205 205 205 206 207 208 209 209 208 207 207 208 208 210 212 213 214 215 216 216 218 219 217 216 217 219
203 203 202 202 203 204 204 204 205 206 207 207 206 206 205 206 206 206 206 207 208 210 210 209 208 207 207 207 208 210 212 214 215 217 217 218 219 220 218 217 219 223
203 203 202 202 202 203 204 205 206 207 207 207 207 207 208 208 209 207 207 208 209 210 211 210 209 208 208 207 208 210 213 214 216 217 218 219 220 222 223 223 224 225
203 203 201 201 202 203 204 205 206 207 207 207 207 207 208 209 209 208 207 208 209 210 210 211 210 210 210 209 210 211 213 214 215 217 218 219 220 220 220 221 222 224
202 202 200 200 202 202 203 204 205 206 206 206 205 205 207 208 208 208 208 209 209 209 210 211 212 213 213 212 212 213 214 214 214 216 219 220 219 218 218 217 219 223
201 200 199 200 202 202 203 204 204 205 205 204 203 203 204 205 206 208 209 209 209 209 210 211 214 215 214 213 213 215 216 214 213 216 219 220 219 220 220 219 220 224
198 198 199 200 201 202 203 203 203 204 204 203 202 201 201 203 205 207 208 207 207 208 209 212 215 216 215 213 213 216 218 216 214 216 219 219 219 220 221 221 222 225
196 197 198 200 201 201 202 202 202 203 203 202 200 199 199 200 203 205 206 205 206 207 210 213 215 216 215 214 213 216 219 219 216 217 220 221 220 220 221 222 224 226
194 195 196 197 198 199 200 201 202 202 200 199 198 198 199 200 201 203 203 203 205 208 210 211 213 215 215 213 213 217 221 220 216 216 219 221 222 222 222 223 226 229
193 192 193 194 194 196 197 199 199 199 198 197 197 198 200 200 201 203 203 203 205 208 209 209 212 215 215 214 214 219 222 219 214 214 218 220 222 223 223 226 229 232
191 190 189 190 191 192 193 195 195 195 194 194 194 194 196 198 199 201 204 205 205 205 205 206 209 213 215 215 216 220 221 217 214 215 219 220 219 220 223 226 230 236
189 187 186 186 187 189 190 190 190 188 190 193 193 192 193 194 195 198 202 204 202 202 203 203 206 211 214 215 218 221 222 218 214 215 218 221 221 221 223 228 237 244
185 184 183 183 184 186 185 184 183 184 187 191 192 191 190 192 194 196 198 199 199 200 200 202 205 209 211 213 217 222 221 217 213 213 218 222 224 226 230 237 248 250
180 180 180 181 181 181 180 179 180 182 185 187 187 187 186 189 194 195 194 195 199 201 203 205 209 210 210 212 216 220 221 217 213 214 218 221 225 229 234 237 243 239
Height
781 784 786 788 790 792 793 795 796 797 799 800 802 804 806 808 810 812 814 816 818 819 821 822 823 825 826 827 828 829 830 831 832 833 833 834 834 834 835 836 836 837
778 781 783 785 787 789 790 792 793 794 796 798 800 802 804 806 808 810 812 814 816 817 819 820 821 823 824 826 827 828 829 830 831 831 832 833 833 833 833 833 834 835
775 777 780 781 783 786 787 789 791 792 794 796 798 800 802 804 806 808 810 812 814 815 817 818 819 820 822 823 825 826 827 828 829 830 831 831 832 832 832 832 832 833
771 774 776 778 780 782 785 787 788 790 792 793 795 798 800 802 804 805 807 810 811 813 814 815 817 818 819 821 822 824 825 827 827 828 829 830 830 831 831 831 832 832
768 771 773 775 776 779 781 783 785 787 789 791 792 795 797 799 801 803 805 807 808 810 811 813 814 815 817 818 819 821 823 824 825 826 827 827 828 829 830 831 831 831
765 767 769 772 773 775 778 780 782 784 786 788 790 792 794 796 798 800 802 803 805 807 808 810 811 813 814 816 817 818 820 821 822 823 824 825 826 827 828 829 829 830
762 764 766 768 770 772 775 777 779 781 783 785 787 789 791 793 795 797 798 800 802 804 805 807 809 810 811 813 814 816 817 818 819 820 822 822 824 825 826 826 827 828
759 761 763 765 766 769 772 774 776 778 780 782 783 786 788 790 792 794 795 797 799 801 802 804 805 807 808 810 811 813 814 815 816 817 818 820 821 822 823 824 825 825
756 758 760 761 763 765 768 770 772 775 777 779 780 782 784 786 788 790 792 794 796 797 799 800 802 803 805 806 808 809 811 812 813 814 815 816 817 818 820 821 822 822
752 754 756 757 759 762 764 766 769 772 774 775 777 779 781 783 785 787 789 791 792 794 795 796 798 800 802 803 805 806 807 808 809 810 812 813 814 815 816 817 818 819
747 750 752 753 755 757 760 763 765 768 770 772 774 775 777 779 782 784 785 787 788 790 791 792 794 796 798 800 801 803 804 805 806 807 808 809 810 811 813 814 815 816
743 745 746 748 750 753 756 759 762 764 766 768 769 771 774 776 778 779 780 782 784 786 787 789 790 792 794 796 798 799 801 803 803 804 805 806 807 808 810 811 813 814
737 739 741 743 746 748 752 755 757 760 762 763 766 768 770 772 773 775 777 778 780 782 783 785 787 789 790 792 794 796 797 799 800 802 803 803 805 806 808 809 811 812
732 734 736 739 742 745 748 751 753 756 758 760 763 765 766 768 769 771 774 776 777 779 780 782 784 785 787 789 791 793 795 796 798 799 800 802 804 805 806 807 808 810
727 730 733 736 739 741 745 747 749 752 754 756 759 761 763 765 766 769 771 773 774 776 778 780 781 783 784 786 788 790 792 793 795 797 799 801 803 804 805 806 806 807
723 726 729 733 735 737 740 743 745 748 751 753 755 757 760 762 764 766 768 769 771 773 775 777 778 780 782 783 786 788 790 792 794 796 798 800 801 802 802 803 804 806
719 722 726 728 731 733 736 738 742 744 747 749 751 753 757 759 761 762 764 765 767 770 772 774 775 778 779 781 784 786 788 790 792 795 796 797 798 799 799 800 802 803
715 718 721 724 726 729 732 735 738 741 743 745 747 749 753 755 757 758 759 762 764 767 769 771 773 775 776 779 781 784 786 788 789 791 793 794 795 796 797 798 799 801
711 714 717 720 722 725 729 732 735 737 739 741 743 746 749 751 753 755 756 759 761 764 767 768 769 771 772 775 778 781 784 785 786 788 790 791 792 793 795 796 797 798
706 709 712 715 718 722 726 728 731 733 735 738 740 743 746 748 750 752 753 756 758 760 762 763 764 766 768 771 775 778 781 782 783 786 788 789 790 791 792 794 795 796
699 703 707 711 715 719 722 724 727 730 733 735 737 740 742 744 746 748 750 752 754 755 757 758 760 762 765 768 772 775 778 779 782 785 787 787 788 789 791 792 793 794
693 698 702 706 711 714 717 721 724 727 730 732 734 737 739 741 743 744 746 748 750 752 754 756 758 760 762 765 769 772 775 777 780 782 784 785 787 788 789 790 791 791
688 693 697 702 706 709 713 716 719 722 725 728 731 734 735 737 739 741 743 745 747 749 751 753 756 758 760 763 766 770 773 775 777 780 782 783 785 786 787 788 789 789
683 688 692 697 701 704 708 711 715 718 722 724 727 729 731 734 737 739 741 742 743 745 747 749 752 755 758 762 764 767 770 772 774 777 779 781 782 784 785 786 787 788
678 683 688 692 696 700 704 707 711 715 718 720 722 725 727 731 734 736 738 740 742 744 746 749 752 754 757 760 763 765 767 769 772 775 777 779 780 782 783 784 785 786
674 679 683 687 692 696 700 704 708 712 715 718 721 723 726 729 733 736 739 741 744 746 748 750 752 754 757 759 760 763 765 767 770 772 774 777 778 780 782 783 784 785